Simultaneous Nadir Overpasses (SNOs) Predictions

Prediction of SNOs between GOES-16 and AQUA Satellite Orbit:

Table of predicted SNOs for the next 14.0 days since TLE Epoch: 5/25/2018
Index Date Time (GOES-16) GOES-16 Lat,Lon AQUA Lat,Lon Distance(km) Time Diff (sec)
1 05/26/2018 06:17:51 0.00, -75.19 -0.93, -70.91 487.25 80
2 05/26/2018 18:39:15 -0.00, -75.19 -0.21, -76.10 103.72 80
3 05/28/2018 18:29:44 -0.00, -75.20 0.45, -73.15 233.10 80
4 05/29/2018 06:50:58 -0.00, -75.20 0.65, -78.30 352.18 80
5 05/31/2018 06:38:46 -0.01, -75.22 0.05, -75.34 15.27 80
6 06/02/2018 06:23:56 -0.02, -75.23 -0.62, -72.39 322.72 80
7 06/02/2018 18:45:20 0.02, -75.23 -0.47, -77.59 268.14 80
8 06/04/2018 18:35:48 0.02, -75.25 0.14, -74.63 70.43 80
9 06/06/2018 18:23:37 0.02, -75.28 0.81, -71.68 409.60 80
10 06/07/2018 06:44:52 -0.02, -75.30 0.29, -76.84 174.82 80




NCC Satellite Simultaneous Nadir Overpasses (SNOs) Prediction Service
